Terug naar catalogus

STARLINK-33758

ActiefCommunicatieVLEO
NORAD 64004·PAYLOAD·🇺🇸 United States

Gelanceerd May 14, 2025 vanaf Cape Canaveral Space Force Station

Loading…

Volgende Passages (komende 24 uur)

TLE

VersSource: CelesTrak SupGP

Epoch: Sep 15, 2026, 02:56 UTC

1 64004C 25101L   26258.12270833  .00023592  00000+0  85428-3 0  2580
2 64004  43.0045   8.2439 0002089 265.7965 157.0891 15.27574205    17

Volg STARLINK-33758 in realtime met AllMySat

Download on the App Store